Regional Weather Roundup
Issued by NWS

Home | Current Version | Previous Version | Text Only | Print | Product List | Glossary Off
Versions: 1 2 3 4 5 6 7 8 9 10 11 12 13 14 15 16 17 18 19 20 21 22 23 24 25 26 27 28 29 30 31 32 33 34 35 36 37 38 39 40 41 42 43 44 45 46 47 48 49 50

000
ASUS45 KBOI 190810
RWRID
WEATHER ROUNDUP FOR IDAHO
NATIONAL WEATHER SERVICE BOISE ID
200 AM MDT FRI SEP 19 2014

NOTE: "FAIR" INDICATES FEW OR NO CLOUDS BELOW 12000 FEET
WITH NO SIGNIFICANT WEATHER AND/OR OBSTRUCTIONS TO VISIBILITY

IDZ012-014-190900-
SOUTHWEST IDAHO


CITY           SKY/WX    TMP DP  RH WIND       PRES   REMARKS
BOISE          CLEAR     65  44  46 W8        29.92R
CALDWELL       CLEAR     64  43  45 NW12      29.94R
MOUNTAIN HOME  CLEAR     60  42  52 W6        29.92R
$$

IDZ016-017-190900-
SOUTHCENTRAL IDAHO


CITY           SKY/WX    TMP DP  RH WIND       PRES   REMARKS
BURLEY         CLEAR     56  45  66 CALM      29.94R HAZE
JEROME         CLEAR     58  43  57 SE6       29.95R
TWIN FALLS     CLEAR     64  40  41 S14       29.95R
$$

IDZ019>023-190900-
SOUTHEAST IDAHO


CITY           SKY/WX    TMP DP  RH WIND       PRES   REMARKS
IDAHO FALLS    PTCLDY    57  50  77 CALM      29.97R
POCATELLO      CLEAR     55  54  96 NW7       29.96R
REXBURG        PTCLDY    56  49  77 NW5       29.98R
$$

IDZ006-010-011-018-031-032-190900-
CENTRAL IDAHO MOUNTAINS


CITY           SKY/WX    TMP DP  RH WIND       PRES   REMARKS
MCCALL         CLEAR     50  39  66 NE3       30.00R
HAILEY         CLEAR     52  39  62 NW9       30.04R
STANLEY          N/A     43  34  70 S6        30.10R
SALMON         CLEAR     46  45  93 CALM      29.94R
CHALLIS        CLEAR     49  39  68 CALM      29.99R
$$

IDZ002-004-006-007-026-190900-
NORTHERN IDAHO


CITY           SKY/WX    TMP DP  RH WIND       PRES   REMARKS
LEWISTON       CLOUDY    69  49  48 NW3       29.91R
LOWELL           N/A     60  54  80 CALM      29.91R
COEUR D`ALENE  MOCLDY    63  46  55 S3        29.88R
MULLAN PASS    CLOUDY    49  45  86 SW7       30.00R
$$



USA.gov is the U.S. government's official web portal to all federal, state and local government web resources and services.